Miscellaneous Local Product
Issued by NWS North Platte, NE

Home | Current Version | Previous Version | Graphics & Text | Print | Product List | Glossary On
Versions: 1 2 3 4 5 6 7 8 9 10 11 12 13 14 15 16 17 18 19 20 21 22 23 24 25 26 27 28 29 30 31 32 33 34 35 36 37 38 39 40 41 42 43 44 45 46 47 48 49 50
000
AXUS43 KLBF 240210
MISLBF


WESTERN AND NORTH CENTRAL NEBRASKA HOURLY WEATHER ROUNDUP
NATIONAL WEATHER SERVICE NORTH PLATTE NE
900 PM CDT THU OCT 23 2014

***STATIONS NOT REPORTING VARIABLES SUCH AS SKY/WEATHER OR
PRESSURE ARE PROVIDED BY THE NEBRASKA DEPARTMENT OF
ROADS...RAWS...AND APRS NETWORKS...AND ARE NOT UNDER
NATIONAL WEATHER SERVICE QUALITY CONTROL***

...OBSERVATIONS IN AND NEAR THE EASTERN PANHANDLE OF NEBRASKA...

CITY           SKY/WX    TMP DP  RH WIND       PRES   REMARKS
PINE RIDGE     PTCLDY    41  35  79 CALM      29.94R
CHADRON        MOCLDY    46  38  73 W3        29.95R
ALLIANCE       PTCLDY    48  32  53 W8        29.99R
SIDNEY         PTCLDY    49  36  61 SW12      30.05R
WHITECLAY        N/A     43  35  72 SE5         N/A
RUSHVILLE        N/A     47  29  49 S7          N/A
CRESCENT LAKE    N/A     58  32  38 SW6         N/A
LISCO            N/A     57  31  36 CALM        N/A
BIG SPRINGS      N/A     60  36  41 CALM        N/A
LEWELLEN         N/A     73  27  17 SW12        N/A
$$

...OBSERVATIONS IN NORTH CENTRAL NEBRASKA...

CITY           SKY/WX    TMP DP  RH WIND       PRES   REMARKS
VALENTINE      MOCLDY    54  37  52 SW10      29.91F
THEDFORD       PTCLDY    58  38  46 S8        29.96F
AINSWORTH      MOCLDY    52  46  78 S9        29.92F
O`NEILL        CLOUDY    62  55  80 S10       29.95S
ORD            CLOUDY    56  53  90 S5        29.97S
BROKEN BOW     PTCLDY    58  53  84 S5        29.99R
BROWNLEE         N/A     62  27  26 S3          N/A
SPRINGVIEW       N/A     60  49  66 CALM        N/A
BREWSTER         N/A     61  52  73 S9          N/A
ROSE             N/A     61  53  74 E8          N/A
NEWPORT          N/A     60  49  65 S10         N/A
SARGENT          N/A     56  51  83 CALM        N/A
COMSTOCK         N/A     58  56  92 S6          N/A
CHAMBERS         N/A     58  53  84 S8          N/A
EWING            N/A     58  53  85 S3          N/A
$$

...OBSERVATIONS IN SOUTHWEST NEBRASKA AND FAR NORTHEAST COLORADO...

CITY           SKY/WX    TMP DP  RH WIND       PRES   REMARKS
WRAY           FAIR      55  34  44 SW6       30.05S
HOLYOKE        FAIR      55  34  44 SW7       30.04R
IMPERIAL       CLEAR     59  38  45 S8        30.02R
OGALLALA       CLEAR     53  37  53 CALM      30.00S
NORTH PLATTE   PTCLDY    60  46  59 S10       29.99S
MCCOOK           N/A     63  55  75 S12       30.02R
LEXINGTON      CLEAR     55  52  89 SE6       30.01R
PAXTON           N/A     58  39  50 CALM        N/A
SUTHERLAND       N/A     58  36  44 S12         N/A
BRADY            N/A     59  48  67 CALM        N/A
GOTHENBURG       N/A     64  46  53 S7          N/A
CALLAWAY         N/A     56  49  76 S9          N/A
$$

...SOME WEATHER OBSERVATIONS FROM AROUND THE REGION...

CITY           SKY/WX    TMP DP  RH WIND       PRES   REMARKS
DENVER         MOCLDY    54  31  41 S13       30.13R
LARAMIE        CLOUDY    52  26  36 CALM      30.20S
CHEYENNE       MOCLDY    52  30  43 W3        30.15R
SCOTTSBLUFF    PTCLDY    53  35  50 E3        30.02R
RAPID CITY     PTCLDY    47  34  60 NW7       29.93R
PIERRE         CLOUDY    50  35  56 E5        29.84F
WINNER         FAIR      61  35  37 S8        29.87F
SIOUX FALLS    MOCLDY    60  45  57 S13       29.95S
OMAHA          PTCLDY    56  50  80 SE7       30.02S
GRAND ISLAND   MOCLDY    57  55  93 S8        30.01F FOG
KANSAS CITY    CLEAR     56  56 100 S8        30.07S FOG
WICHITA        PTCLDY    64  58  80 S6        30.06S
HAYS           PTCLDY    61  54  77 S8        30.05F
LIBERAL        PTCLDY    66  55  68 E7        30.10S
GOODLAND       CLEAR     56  52  86 S12       30.08S
$$



USA.gov is the U.S. government's official web portal to all federal, state and local government web resources and services.